Regional Weather Roundup
Issued by NWS

Home | Current Version | Previous Version | Graphics & Text | Print | Product List | Glossary On
Versions: 1 2 3 4 5 6 7 8 9 10 11 12 13 14 15 16 17 18 19 20 21 22 23 24 25 26 27
000
ASUS45 KBOU 151507
RWRCO

WEATHER ROUNDUP FOR COLORADO
NATIONAL WEATHER SERVICE DENVER/BOULDER CO
900 AM MDT TUE AUG 15 2017

NOTE: "FAIR" INDICATES FEW OR NO CLOUDS BELOW 12000 FEET WITH NO
SIGNIFICANT WEATHER AND/OR OBSTRUCTIONS TO VISIBILITY.

COZ001>005-013-030-031-151600-
...NORTHWEST COLORADO...

CITY           SKY/WX    TMP DP  RH WIND       PRES   REMARKS
CRAIG          FAIR      61  50  67 N5        30.04R
HAYDEN         FAIR      57  48  72 SE6       30.08S
MEEKER         FAIR      59  50  72 CALM      30.04R
RABBIT EARS PA FAIR      50  36  57 CALM      30.29R
STEAMBOAT SPGS FAIR      52  48  84 CALM      30.07R
WALDEN         FAIR      50  45  81 S5        30.15F
$$

COZ006>008-011-151600-
...WEST CENTRAL VALLEYS...

CITY           SKY/WX    TMP DP  RH WIND       PRES   REMARKS
GRAND JUNCTION FAIR      76  45  33 SE10      29.93R
MONTROSE       FAIR      71  40  32 E6        30.03S
EAGLE          FAIR      55  44  66 CALM      30.10S
RIFLE          FAIR      60  50  69 CALM      30.00R
DELTA          FAIR      74  42  31 E8        29.99S HAZE
NUCLA          NOT AVBL
$$

COZ017>023-064>068-151600-
...SOUTHWEST COLORADO...

CITY           SKY/WX    TMP DP  RH WIND       PRES   REMARKS
DURANGO        FAIR      64  44  48 CALM      30.14R
CORTEZ         FAIR      68  43  40 N5        30.07R
PAGOSA SPRINGS FAIR      62  43  49 E3        30.21R
TELLURIDE      FAIR      59  37  43 CALM      30.28S
WOLF CREEK PAS FAIR      43  37  81 SW8       30.48R
$$

COZ009-010-012-014-032>034-037-058>063-151600-
...CENTRAL COLORADO...

CITY           SKY/WX    TMP DP  RH WIND       PRES   REMARKS
ASPEN          PTSUNNY   59  43  55 CALM      30.12R
BUENA VISTA    FAIR      57  42  59 CALM      30.17S
COPPER MTN     FAIR      52  32  46 SW7G17    30.41R
BERTHOUD PASS  FAIR      43  37  81 W17G29    30.43R
COTTONWOOD PAS FAIR      59  41  51 E6        30.28R
GUNNISON       FAIR      52  44  74 CALM      30.20R
KREMMLING      FAIR      54  46  76 CALM      30.14S
LEADVILLE      FAIR      47  43  86 W5        30.26R
MONARCH PASS   FAIR      46  32  57 W20G28    30.51S
SALIDA         FAIR      58  44  59 CALM      30.21F
SUNLIGHT       PTSUNNY   46  36  66 SW9       30.34S
WILKERSON PASS FAIR      50  34  53 SW9       30.39S
$$

COZ069>075-151600-
...SAN LUIS VALLEY/SANGRE DE CRISTO MOUNTAINS...

CITY           SKY/WX    TMP DP  RH WIND       PRES   REMARKS
ALAMOSA        FAIR      58  47  66 E3        30.16R
DEL NORTE      FAIR      61  44  53 W7        30.19R
LA VETA PASS   NOT AVBL
SAGUACHE       FAIR      59  43  55 NW3       30.19S
$$

COZ035-036-038>040-151600-
...NORTHERN COLORADO FRONT RANGE...

CITY           SKY/WX    TMP DP  RH WIND       PRES   REMARKS
DENVER INTL AP PTSUNNY   66  54  65 NE3       29.96R
DMNS CITY PARK   N/A     71  47  42 E8        29.96S
AURORA         PTSUNNY   67  50  55 CALM      29.98R
FRONT RANGE AP FAIR      63  55  77 NE5       29.98S
ERIE MUNI ARPT FAIR      68  51  54 NE5       29.98R
BOULDER MUN AP FAIR      70  52  52 NE9       29.95R
CENTENNIAL     FAIR      68  47  46 W8        29.98R
BROOMFIELD     FAIR      68  52  56 E8        29.98R
FORT COLLINS   FAIR      67  54  63 NE9       29.95R
LONGMONT       FAIR      72  52  49 E6        29.96R
$$

COZ041-046-047-076>085-087-088-151600-
...PIKES PEAK/PALMER DIVIDE AND SOUTHERN FOOTHILLS...

CITY           SKY/WX    TMP DP  RH WIND       PRES   REMARKS
COLO. SPRINGS  PTSUNNY   68  58  70 CALM      30.02R
A. F. ACADEMY  PTSUNNY   63  57  80 CALM      30.02S
SCHRIEVER AFB  PTSUNNY   66  57  71 SW6       30.01S
CHEYENNE MTN   CLOUDY    64  57  80 CALM      30.00S
ELLICOTT       FAIR     N/A N/A N/A NW5       29.99S
FALCON         FAIR      67  56  67 W5        30.06S
FORT CARSON    PTSUNNY   65  57  74 N8        29.98S
LIMON          FAIR      66  59  78 N5        29.96S
MONUMENT HILL  FAIR      59  55  88 S6        30.07S
CANON CITY     SUNNY     73  52  46 W16       29.95F
WALSENBURG     FAIR      75  46  35 W16G23    30.00S
TRINIDAD       FAIR      72  51  47 W8        29.98S
$$

COZ042>045-048>051-090-091-151600-
...NORTHEAST COLORADO...

CITY           SKY/WX    TMP DP  RH WIND       PRES   REMARKS
GREELEY ARPT   FAIR      67  58  72 SE8       29.94S
AKRON          FAIR      69  57  65 E10       29.92R
BURLINGTON     FAIR      70  62  76 CALM      29.90S
WRAY           NOT AVBL
YUMA           FAIR      66  50  55 E10       29.90S
STERLING       FAIR      70  63  78 NE8       29.89S
HOLYOKE        CLOUDY    70  63  78 E8        29.90R
FORT MORGAN    FAIR      70  57  62 E5        29.93S
$$

COZ086-089-092>099-151600-
...SOUTHEAST COLORADO...

CITY           SKY/WX    TMP DP  RH WIND       PRES   REMARKS
PUEBLO         FAIR      72  57  59 SW6       29.92R
LA JUNTA       FAIR      71  63  75 W7        29.88R
LAMAR          FAIR      71  60  68 SW3       29.84R
SPRINGFIELD      N/A     70  59  68 S17       29.90R
$$




USA.gov is the U.S. government's official web portal to all federal, state and local government web resources and services.